#timestamp,LO_Frequency,Hit,StdDev 
1546419615.5,286047002.7,N
1546419635.3,286046999.7,N
1546419655.1,286047002.4,N
1546419675.9,286047000.5,N
1546419695.7,286047000.2,N
1546419715.5,286047002.4,N
1546419735.4,286047002.0,N
1546419755.2,286047002.7,N
1546419775.1,286047000.9,N
1546419776.0,286047000.9,N
1546419795.8,286046999.9,N
1546419815.6,286047000.9,N
1546419835.5,286047002.8,N
1546419855.3,286047000.2,N
1546419875.1,286047000.2,N
1546419895.9,286047000.1,N
1546419915.7,286047001.0,N
1546419935.6,286047000.5,N
1546419955.4,286046998.7,N
1546419975.2,286046998.8,N
1546419995.1,286046998.3,N
1546419996.0,286046998.3,N
1546420015.8,286047000.4,N
1546420035.6,286046999.7,N
1546420055.5,286047000.7,N
1546420075.3,286046999.9,N
1546420095.2,286047002.3,N
1546420115.9,286047002.2,N
1546420135.7,286047000.5,N
1546420155.6,286047000.3,N
1546420175.4,286047000.6,N
1546420195.2,286047000.5,N
1546420215.1,286047002.6,N
1546420216.0,286047002.6,N
1546420235.8,286047001.0,N
1546420255.7,286047002.6,N
1546420275.5,286047002.4,N
1546420295.3,286047002.5,N
1546420315.2,286047002.2,N
1546420335.0,286047001.6,N
1546420335.9,286047001.6,N
1546420355.8,286046999.8,N
1546420375.6,286046999.9,N
1546420395.4,286046999.8,N
1546420415.3,286047000.2,N
1546420435.1,286047002.5,N
1546420455.8,286047002.5,N
1546420475.7,286046999.8,N
1546420495.5,286047000.2,N
1546420515.4,286047002.4,N
1546420535.2,286047002.8,N
1546420555.0,286047000.0,N
1546420555.9,286047000.0,N
1546420575.8,286047002.7,N
1546420595.6,286047000.0,N
1546420615.4,286047000.8,N
1546420635.3,286046998.8,N
1546420655.1,286046997.3,N
1546420675.9,286046997.7,N
1546420695.7,286046997.8,N
1546420715.5,286046997.2,N
1546420735.4,286046999.6,N
1546420755.2,286046999.5,N
1546420775.0,286046999.6,N
1546420775.9,286046999.6,N
1546420795.8,286046996.9,N
1546420815.6,286046998.6,N
1546420835.5,286046996.9,N
1546420855.3,286046999.2,N
1546420875.1,286046999.1,N
1546420895.9,286046997.6,N
1546420915.7,286046996.7,N
1546420935.5,286046996.6,N
1546420955.4,286046998.8,N
1546420975.2,286046999.0,N
1546420995.1,286047000.8,N
1546420996.0,286047000.8,N
1546421015.8,286047000.6,N
1546421035.6,286047000.7,N
1546421055.5,286046998.4,N
1546421075.3,286046998.8,N
1546421095.1,286046999.2,N
1546421115.9,286046999.5,N
1546421135.7,286046999.2,N
1546421155.6,286046999.6,N
1546421175.4,286046999.2,N
1546421195.2,286046997.2,N
1546421215.1,286046999.0,N
1546421216.0,286046999.0,N
1546421235.8,286046999.0,N
1546421255.7,286046997.8,N
1546421275.5,286046997.4,N
1546421295.3,286046997.3,N
1546421315.2,286046997.2,N
1546421335.0,286046995.1,Y
1546421335.9,286046995.1,P
1546421355.7,286046999.3,N
1546421375.6,286047001.2,N
1546421395.4,286046998.6,N
1546421415.3,286047001.2,N
1546421435.1,286046998.5,N
1546421436.0,286046998.5,N
1546421455.8,286046999.2,N
1546421475.7,286046999.1,N
1546421495.5,286046999.1,N
1546421515.3,286046999.1,N
1546421535.2,286046996.9,N
1546421555.0,286046997.2,N
1546421555.9,286046997.2,N
1546421575.8,286046997.8,N
1546421595.6,286046997.3,N
1546421615.4,286046997.0,N
1546421635.3,286046996.5,N
1546421655.1,286046996.6,N
1546421675.9,286046997.1,N
1546421695.7,286046996.7,N
1546421715.5,286046994.9,Y
1546421735.4,286047001.0,P
1546421755.2,286047001.1,N
1546421775.1,286046998.8,N
1546421795.0,286046998.3,N
1546421795.9,286046998.3,N
1546421815.8,286046998.3,N
1546421835.6,286046998.9,N
1546421855.4,286046999.4,N
1546421875.3,286046998.6,N
1546421895.1,286046999.3,N
1546421915.9,286046999.2,N
1546421935.7,286046996.6,Y
1546421955.5,286046998.9,P
1546421975.4,286047001.2,P
1546421995.2,286047000.2,N
1546422015.0,286046998.1,N
1546422016.0,286046998.1,N
1546422035.8,286046999.3,N
1546422055.6,286046999.5,N
1546422075.5,286046999.3,N
1546422095.3,286047000.8,N
1546422115.1,286047000.7,N
1546422135.9,286047001.1,N
1546422155.7,286046998.4,N
1546422175.6,286046997.8,N
1546422195.4,286046996.1,Y
1546422215.2,286046998.0,P
1546422235.1,286046995.9,P
1546422236.0,286046995.9,N
1546422255.8,286046996.2,N
1546422275.7,286046996.7,N
1546422295.5,286046998.8,N
1546422315.3,286046999.1,N
1546422335.2,286046998.6,N
1546422355.0,286046998.2,N
1546422355.9,286046998.2,N
1546422375.7,286046998.6,N
1546422395.6,286046996.6,N
1546422415.4,286046997.1,N
1546422435.3,286046996.9,N
1546422455.1,286046997.4,N
1546422475.8,286046997.2,N
1546422495.7,286046995.7,Y
1546422515.5,286046999.3,P
1546422535.4,286046996.6,P
1546422555.2,286046997.1,N
1546422575.1,286046997.7,N
1546422576.0,286046997.7,N
1546422595.8,286046998.0,N
1546422615.6,286046999.1,N
1546422635.5,286046999.0,N
1546422655.3,286046997.1,Y
1546422675.1,286046999.4,P
1546422695.9,286046998.6,N
1546422715.7,286047001.2,N
1546422735.6,286046999.4,N
1546422755.4,286046999.1,N
1546422775.2,286046999.2,N
1546422795.1,286046998.9,N
1546422796.0,286046998.9,N
1546422815.8,286047001.2,N
1546422835.7,286047000.0,N
1546422855.5,286047002.4,N
1546422875.3,286047000.9,N
1546422895.2,286047001.2,N
1546422915.0,286047000.8,N
1546422915.9,286047000.8,N
1546422935.7,286047001.2,N
1546422955.6,286046999.8,N
1546422975.4,286047002.0,N
1546422995.3,286047001.8,N
1546423015.1,286047004.0,Y
1546423035.8,286047002.5,P
1546423055.7,286047001.1,N
1546423075.5,286047000.7,N
1546423095.4,286047000.9,N
1546423115.2,286047000.2,N
1546423135.0,286047000.4,N
1546423135.9,286047000.4,N
1546423155.8,286046998.5,N
1546423175.6,286046998.5,N
1546423195.5,286046998.5,N
